This demonstration page uses our WeatherBlox Daily Observations layout. Learn more.

Left ArrowRight Arrow

Hourly Observations for January 7, 2016

Temp ( °F °C ) Dew Point ( °F °C ) Humidity (%) Winds ( mph kmh ) Pressure ( in mb ) Visibility ( mi km ) Precip ( " mm )
12:12 am 00:12 Cloudy with Mist and Fog 36 2 34 1 93 93 SE 6 9 29.97 1015 3 5 0.00 0.00
12:37 am 00:37 Cloudy with Mist and Fog 35 1.7 34 1.1 96 96 SE 5 7 29.97 1015 3 4 0.00 0.00
12:54 am 00:54 Cloudy with Mist and Fog 35 1.7 34 1.1 96 96 SE 5 7 29.93 1014 2 3 0.00 0.00
1:54 am 01:54 Cloudy with Mist and Fog 35 1.7 34 1.1 96 96 ESE 5 7 29.92 1013 3 4 0.00 0.00
2:31 am 02:31 Cloudy with Mist and Fog 35 1.7 34 1.1 96 96 ESE 5 7 29.97 1015 2 3 0.00 0.00
2:54 am 02:54 Cloudy with Mist and Fog 35 1.7 35 1.7 100 100 ESE 5 7 29.93 1013 1 1 0.00 0.00
3:54 am 03:54 Mostly Cloudy with Fog 35 1.7 35 1.7 100 100 SE 6 9 29.93 1013 1 1 0.00 0.00
4:04 am 04:04 Mostly Cloudy with Fog 36 2 36 2 100 100 ESE 5 7 29.94 1014 0 0 0.00 0.00
4:17 am 04:17 Mostly Cloudy with Fog 36 2 36 2 100 100 SE 5 7 29.94 1014 0 0 0.00 0.00
4:46 am 04:46 Mostly Cloudy with Fog 36 2 36 2 100 100 ENE 3 6 29.94 1014 1 1 0.00 0.00
4:54 am 04:54 Mostly Cloudy with Fog 35 1.7 35 1.7 100 100 ENE 3 6 29.90 1013 0 0 0.00 0.00
5:03 am 05:03 Mostly Cloudy with Fog 36 2 36 2 100 100 E 3 6 29.94 1014 0 0 0.00 0.00
5:54 am 05:54 Mostly Cloudy with Fog 35 1.7 34 1.1 96 96 E 5 7 29.91 1013 1 1 0.00 0.00
6:04 am 06:04 Mostly Cloudy with Fog 36 2 34 1 93 93 E 5 7 29.94 1014 0 0 0.00 0.00
6:13 am 06:13 Mostly Cloudy with Fog 36 2 36 2 100 100 E 3 6 29.94 1014 1 1 0.00 0.00
6:22 am 06:22 Mostly Cloudy with Fog 36 2 34 1 93 93 E 3 6 29.94 1014 0 0 0.00 0.00
6:41 am 06:41 Mostly Cloudy with Fog 35 1.7 34 1.1 96 96 E 6 9 29.94 1014 0 0 0.00 0.00
6:54 am 06:54 Mostly Cloudy with Fog 35 1.7 34 1.1 96 96 ESE 6 9 29.91 1013 0 0 0.00 0.00
7:54 am 07:54 Mostly Cloudy with Fog 35 1.7 34 1.1 96 96 E 5 7 29.91 1013 0 0 0.00 0.00
8:54 am 08:54 Mostly Cloudy with Fog 35 1.7 34 1.1 96 96 E 5 7 29.91 1013 0 0 0.00 0.00
9:39 am 09:39 Cloudy with Fog 35 1.7 34 1.1 96 96 E 3 6 29.94 1014 1 1 0.00 0.00
9:54 am 09:54 Cloudy with Mist and Fog 35 1.7 34 1.1 96 96 E 5 7 29.91 1013 1 1 0.00 0.00
10:54 am 10:54 Mostly Cloudy with Fog 35 1.7 34 1.1 96 96 NE 6 9 29.90 1013 1 1 0.00 0.00
11:01 am 11:01 Mostly Cloudy with Fog 35 1.7 34 1.1 96 96 ENE 7 11 29.94 1014 0 0 0.00 0.00
11:44 am 11:44 Cloudy with Fog 35 1.7 34 1.1 96 96 ENE 7 11 29.91 1013 1 1 0.00 0.00
11:54 am 11:54 Cloudy with Mist and Fog 35 1.7 34 1.1 96 96 ENE 6 9 29.88 1012 1 1 0.00 0.00
12:06 pm 12:06 Cloudy with Mist and Fog 36 2 34 1 93 93 ENE 6 9 29.88 1012 1 2 0.00 0.00
12:21 pm 12:21 Cloudy with Light Rain 35 1.7 34 1.1 96 96 ENE 6 9 29.88 1012 1 1 0.01 0.25
12:54 pm 12:54 Cloudy with Light Rain 35 1.7 34 1.1 96 96 NE 7 11 29.84 1010 1 2 0.02 0.51
1:08 pm 13:08 Cloudy with Light Rain 36 2 34 1 93 93 NE 6 9 29.83 1010 3 4 0.00 0.00
1:54 pm 13:54 Cloudy with Light Rain 34 1.1 33 0.6 97 97 NNE 7 11 29.81 1010 3 4 0.04 1.02
2:34 pm 14:34 Cloudy with Light Rain 33 0.6 32 0 96 96 NNE 7 11 29.83 1010 2 3 0.04 1.02
2:51 pm 14:51 Cloudy with Light Snow 34 1 32 0 93 93 NNE 8 13 29.83 1010 2 3 0.07 1.78
2:54 pm 14:54 Cloudy with Light Snow 33 0.6 32 0 96 96 NNE 8 13 29.80 1009 2 3 0.07 1.78
3:17 pm 15:17 Cloudy with Light Snow 33 0.6 32 0 96 96 NNE 8 13 29.83 1010 2 3 0.04 1.02
3:45 pm 15:45 Cloudy with Light Rain 33 0.6 32 0 96 96 NNE 12 19 29.83 1010 3 4 0.11 2.79
3:54 pm 15:54 Cloudy with Light Rain 33 0.6 32 0 96 96 NNE 10 17 29.79 1009 3 4 0.12 3.05
4:09 pm 16:09 Cloudy with Light Rain 33 0.6 32 0 96 96 NE 8 13 29.83 1010 3 4 0.01 0.25
4:34 pm 16:34 Cloudy with Light Rain 34 1 32 0 93 93 NNE 7 11 29.83 1010 2 2 0.00 0.00
4:54 pm 16:54 Cloudy with Light Rain 33 0.6 33 0.6 100 100 N 3 6 29.82 1010 2 2 0.03 0.76
5:19 pm 17:19 Cloudy with Light Rain 34 1 32 0 93 93 N 6 9 29.85 1011 3 5 0.00 0.00
5:20 pm 17:20 Cloudy with Light Rain 34 1 32 0 93 93 N 6 9 29.85 1011 2 3 0.00 0.00
5:54 pm 17:54 Cloudy with Light Snow 33 0.6 32 0 96 96 NNE 9 15 29.81 1010 2 3 0.07 1.78
6:06 pm 18:06 Cloudy with Light Snow 34 1 32 0 93 93 N 8 13 29.83 1010 3 5 0.00 0.00
6:37 pm 18:37 Cloudy with Mist and Fog 33 0.6 32 0 96 96 NNE 9 15 29.83 1010 5 8 0.03 0.76
6:42 pm 18:42 Cloudy with Light Rain 34 1 32 0 93 93 NNE 10 17 29.83 1010 2 3 0.00 0.00
6:54 pm 18:54 Cloudy with Light Rain 33 0.6 32 0 96 96 NNE 9 15 29.81 1010 3 5 0.04 1.02
7:04 pm 19:04 Cloudy with Light Rain 33 0.6 32 0 96 96 NNE 10 17 29.83 1010 4 6 0.00 0.03
7:42 pm 19:42 Cloudy with Light Wintry Mix 34 1 32 0 93 93 N 10 17 29.83 1010 7 11 0.00 0.00
7:54 pm 19:54 Cloudy 33 0.6 32 0 96 96 NNE 8 13 29.80 1009 8 13 0.02 0.51
8:54 pm 20:54 Cloudy 33 0.6 32 0 96 96 N 8 13 29.80 1009 9 14 0.01 0.25
9:54 pm 21:54 Cloudy with Mist and Fog 33 0.6 32 0 96 96 N 8 13 29.80 1009 5 8 0.01 0.25
10:22 pm 22:22 Cloudy with Mist and Fog 34 1 32 0 93 93 N 9 15 29.83 1010 5 8 0.00 0.00
10:54 pm 22:54 Cloudy with Light Snow 33 0.6 32 0 96 96 N 10 17 29.79 1009 4 6 0.00 0.03
11:54 pm 23:54 Cloudy with Mist and Fog 33 0.6 32 0 96 96 N 10 17 29.78 1009 5 8 0.01 0.25

Powered by AerisWeather